C/2013 G3 ( PanSTARRS )

Japanese version
Home page
Updated on November 13, 2016

---------------------------------------------------------------------

* Profile

Discovery Date April 10, 2013
Magnitude 20.7 mag
Discoverer Pan-STARRS 1 telescope (Haleakala)

* Pictures

* Orbital Elements

Epoch 2014 Oct. 30.0 TT = JDT 2456960.5
T 2014 Nov. 15.19236 TT                                 MPCW
q   3.8521987            (2000.0)            P               Q
z  -0.0001304      Peri.   76.49734     -0.00980037     +0.90462380
 +/-0.0000004      Node   208.12668     -0.78719349     +0.25578981
e   1.0005022      Incl.   64.66969     +0.61662821     +0.34092134
From 874 observations 2013 Apr. 10-2016 Oct. 9, mean residual 0".6.

* Finding Charts

* Magnitudes Graph

        m1 = 8.0 + 5 log d + 10.0 log r

---------------------------------------------------------------------

The orbital elements are published on M.P.E.C. 2016-U66.
The charts are made with StellaNavigator Ver.8 (AstroArts).
The magnitudes graphs are made with Comet for Windows.

---------------------------------------------------------------------

Copyright(C) Seiichi Yoshida (comet@aerith.net). All rights reserved.